FW4683 Weather Reports


Display with metric or nautical units.
time (UTC)temp
F
wind
direction
speed
MPH
gust
MPH
rain 1hr
in
rain 24hr
in
rain mn
in
humidity
%
barometer
mb
20260903165510 91 96 0.0 7.0 0.00 0.00 0.00 62 1017.5
20260903165010 92 95 0.0 4.0 0.00 0.00 0.00 62 1017.6
20260903164510 91 95 1.0 4.0 0.00 0.00 0.00 61 1017.6
20260903164010 91 96 0.0 6.0 0.00 0.00 0.00 62 1017.7
20260903163509 91 96 0.0 6.0 0.00 0.00 0.00 61 1017.7
20260903162510 89 96 0.0 9.0 0.00 0.00 0.00 64 1017.7
20260903162006 89 95 1.0 10.0 0.00 0.00 0.00 64 1017.7
20260903161520 89 96 3.0 10.0 0.00 0.00 0.00 63 1017.8
20260903161005 89 95 1.0 10.0 0.00 0.00 0.00 64 1017.9
20260903160505 89 96 2.0 10.0 0.00 0.00 0.00 65 1017.9
20260903160006 89 96 2.0 9.0 0.00 0.00 0.00 66 1017.9
20260903155505 88 95 1.0 10.0 0.00 0.00 0.00 67 1017.9
20260903155004 88 95 2.0 10.0 0.00 0.00 0.00 68 1018.0
20260903154503 88 96 0.0 7.0 0.00 0.00 0.00 68 1017.9
20260903154003 88 96 1.0 7.0 0.00 0.00 0.00 69 1018.0
20260903153503 88 96 2.0 7.0 0.00 0.00 0.00 65 1018.0
20260903152504 87 96 0.0 8.0 0.00 0.00 0.00 69 1017.8
20260903152005 86 95 2.0 8.0 0.00 0.00 0.00 68 1018.0
20260903151503 86 96 2.0 9.0 0.00 0.00 0.00 69 1018.0
20260903151003 86 96 2.0 9.0 0.00 0.00 0.00 68 1018.1
20260903150502 86 96 0.0 9.0 0.00 0.00 0.00 70 1018.1
20260903150005 85 95 2.0 9.0 0.00 0.00 0.00 70 1018.0
20260903145504 85 95 2.0 9.0 0.00 0.00 0.00 69 1018.0
20260903145001 86 95 0.0 4.0 0.00 0.00 0.00 71 1018.1
20260903144601 86 96 1.0 4.0 0.00 0.00 0.00 70 1018.0
20260903144102 84 96 0.0 2.0 0.00 0.00 0.00 70 1017.9
20260903143558 84 96 0.0 3.0 0.00 0.00 0.00 70 1018.0
20260903142555 84 96 0.0 3.0 0.00 0.00 0.00 71 1018.1
20260903142052 83 96 0.0 2.0 0.00 0.00 0.00 72 1018.0
20260903141606 82 96 0.0 2.0 0.00 0.00 0.00 73 1017.9
20260903141050 82 96 0.0 6.0 0.00 0.00 0.00 77 1018.0
20260903140550 81 95 2.0 6.0 0.00 0.00 0.00 77 1018.1
20260903140048 81 96 1.0 4.0 0.00 0.00 0.00 77 1017.9
20260903135548 80 96 0.0 4.0 0.00 0.00 0.00 77 1017.9
20260903135047 80 96 2.0 4.0 0.00 0.00 0.00 77 1018.1
20260903134548 79 96 0.0 4.0 0.00 0.00 0.00 80 1018.0
20260903134044 79 96 1.0 4.0 0.00 0.00 0.00 80 1018.0
20260903133543 78 96 0.0 4.0 0.00 0.00 0.00 82 1017.9
20260903132543 77 96 3.0 7.0 0.00 0.00 0.00 83 1017.9
20260903132044 77 96 1.0 4.0 0.00 0.00 0.00 83 1018.0
20260903131551 76 96 0.0 6.0 0.00 0.00 0.00 85 1017.9
20260903131041 76 96 3.0 8.0 0.00 0.00 0.00 85 1018.0
20260903130540 76 96 1.0 7.0 0.00 0.00 0.00 85 1018.1
20260903130044 76 96 1.0 6.0 0.00 0.00 0.00 86 1018.2
20260903125540 75 96 0.0 4.0 0.00 0.00 0.00 86 1018.3
20260903125040 75 95 0.0 3.0 0.00 0.00 0.00 86 1018.3
20260903124541 75 96 0.0 2.0 0.00 0.00 0.00 87 1018.3
20260903124038 74 96 0.0 3.0 0.00 0.00 0.00 87 1018.2
20260903123540 74 96 1.0 4.0 0.00 0.00 0.00 88 1018.3
20260903122540 74 96 0.0 3.0 0.00 0.00 0.00 88 1018.3
20260903122039 73 96 0.0 3.0 0.00 0.00 0.00 89 1018.3
20260903121553 73 96 0.0 3.0 0.00 0.00 0.00 89 1018.3
20260903121039 73 96 0.0 2.0 0.00 0.00 0.00 89 1018.2
20260903120538 73 96 0.0 2.0 0.00 0.00 0.00 90 1018.3
20260903120039 72 96 0.0 0.0 0.00 0.00 0.00 90 1018.3
20260903115542 72 96 0.0 0.0 0.00 0.00 0.00 91 1018.2
20260903115038 72 96 0.0 0.0 0.00 0.00 0.00 92 1018.2
20260903114538 72 96 0.0 0.0 0.00 0.00 0.00 92 1018.3
20260903114037 72 96 0.0 0.0 0.00 0.00 0.00 92 1018.0
20260903113538 71 96 0.0 0.0 0.00 0.00 0.00 93 1017.9
20260903112536 71 95 0.0 0.0 0.00 0.00 0.00 93 1018.1
20260903112035 71 96 0.0 0.0 0.00 0.00 0.00 93 1017.7
20260903111539 71 96 0.0 0.0 0.00 0.00 0.00 93 1017.6
20260903111035 71 96 0.0 0.0 0.00 0.00 0.00 93 1017.6
20260903110536 71 96 0.0 0.0 0.00 0.00 0.00 93 1017.6
20260903110034 71 96 0.0 0.0 0.00 0.00 0.00 93 1017.5
20260903105533 71 96 0.0 0.0 0.00 0.00 0.00 93 1017.5
20260903105036 71 96 0.0 0.0 0.00 0.00 0.00 93 1017.4
20260903104547 71 96 0.0 0.0 0.00 0.00 0.00 93 1017.4
20260903104032 72 96 0.0 0.0 0.00 0.00 0.00 93 1017.3
20260903103531 72 96 0.0 0.0 0.00 0.00 0.00 92 1017.3
20260903102530 72 96 0.0 0.0 0.00 0.00 0.00 92 1017.2
20260903102034 72 96 0.0 0.0 0.00 0.00 0.00 92 1017.2
20260903101529 72 96 0.0 0.0 0.00 0.00 0.00 92 1017.3
20260903101029 72 96 0.0 0.0 0.00 0.00 0.00 92 1017.2
20260903100530 72 96 0.0 0.0 0.00 0.00 0.00 92 1017.1
20260903100040 72 96 0.0 0.0 0.00 0.00 0.00 92 1017.0
20260903095528 72 96 0.0 0.0 0.00 0.00 0.00 92 1017.0
20260903095028 72 95 0.0 0.0 0.00 0.00 0.00 92 1017.0
20260903094529 72 96 0.0 0.0 0.00 0.00 0.00 91 1017.0
20260903094031 73 96 0.0 0.0 0.00 0.00 0.00 91 1016.9
20260903093534 73 96 0.0 0.0 0.00 0.00 0.00 90 1016.9
20260903092530 73 95 0.0 0.0 0.00 0.00 0.00 91 1017.0
20260903092027 73 96 0.0 0.0 0.00 0.00 0.00 91 1016.9
20260903091526 73 96 0.0 0.0 0.00 0.00 0.00 91 1016.9
20260903091025 73 96 0.0 0.0 0.00 0.00 0.00 91 1016.9
20260903090526 73 96 0.0 0.0 0.00 0.00 0.00 91 1016.9
20260903090028 73 96 0.0 0.0 0.00 0.00 0.00 91 1017.0
20260903085525 73 95 0.0 0.0 0.00 0.00 0.00 92 1017.0
20260903085025 73 95 0.0 0.0 0.00 0.00 0.00 92 1017.0
20260903084525 73 96 0.0 0.0 0.00 0.00 0.00 92 1017.0
20260903084025 73 96 0.0 0.0 0.00 0.00 0.00 92 1017.0
20260903083525 73 96 0.0 0.0 0.00 0.00 0.00 93 1017.0
20260903082525 73 95 0.0 0.0 0.00 0.00 0.00 92 1016.9
20260903082025 73 96 0.0 0.0 0.00 0.00 0.00 93 1016.9
20260903081525 73 96 0.0 0.0 0.00 0.00 0.00 93 1016.9
20260903081025 73 96 0.0 0.0 0.00 0.00 0.00 93 1016.9
20260903080527 73 96 0.0 0.0 0.00 0.00 0.00 93 1016.9
20260903080024 73 96 0.0 0.0 0.00 0.00 0.00 93 1016.8
20260903075526 73 96 0.0 0.0 0.00 0.00 0.00 93 1016.8
20260903075025 73 96 0.0 0.0 0.00 0.00 0.00 93 1016.7
20260903074526 73 96 0.0 0.0 0.00 0.00 0.00 93 1016.8
20260903074022 73 96 0.0 0.0 0.00 0.00 0.00 93 1016.7
20260903073522 73 96 1.0 3.0 0.00 0.00 0.00 93 1016.5
20260903072522 74 96 0.0 3.0 0.00 0.00 0.00 93 1016.5
20260903072024 74 96 0.0 0.0 0.00 0.00 0.00 93 1016.5
20260903071523 74 96 0.0 0.0 0.00 0.00 0.00 93 1016.4
20260903071022 74 96 0.0 0.0 0.00 0.00 0.00 93 1016.6
20260903070522 74 96 0.0 0.0 0.00 0.00 0.00 93 1016.6
20260903070022 74 96 0.0 0.0 0.00 0.00 0.00 93 1016.4
20260903065522 74 96 0.0 0.0 0.00 0.00 0.00 93 1016.5
20260903065021 74 96 0.0 0.0 0.00 0.00 0.00 93 1016.5
20260903064518 74 96 0.0 0.0 0.00 0.00 0.00 93 1016.6
20260903064018 74 96 0.0 3.0 0.00 0.00 0.00 92 1016.7
20260903063518 75 96 0.0 3.0 0.00 0.00 0.00 91 1016.6
20260903062516 75 95 0.0 2.0 0.00 0.00 0.00 90 1016.7
20260903062015 75 96 0.0 2.0 0.00 0.00 0.00 90 1016.7
20260903061518 75 96 0.0 3.0 0.00 0.00 0.00 90 1016.8
20260903061018 75 96 0.0 7.0 0.00 0.00 0.00 89 1016.7
20260903060514 75 96 0.0 8.0 0.00 0.00 0.00 89 1016.7
20260903060016 75 96 2.0 8.0 0.00 0.00 0.00 89 1016.6
20260903055513 75 96 0.0 4.0 0.00 0.00 0.00 91 1016.7
20260903055012 75 96 0.0 0.0 0.00 0.00 0.00 91 1016.9
20260903054612 75 96 0.0 0.0 0.00 0.00 0.00 91 1017.0
20260903054012 75 96 0.0 1.0 0.00 0.00 0.00 91 1017.0
20260903053510 76 96 0.0 1.0 0.00 0.00 0.00 91 1017.1
20260903052508 76 96 0.0 1.0 0.00 0.00 0.00 90 1017.2
20260903052007 76 96 0.0 2.0 0.00 0.00 0.00 90 1017.2
20260903051507 76 96 0.0 6.0 0.00 0.00 0.00 89 1017.3
20260903051006 76 96 1.0 3.0 0.00 0.00 0.00 90 1017.2
20260903050506 76 96 0.0 0.0 0.00 0.00 0.00 91 1017.3
20260903050007 76 96 0.0 0.0 0.00 0.00 0.00 92 1017.3
20260903045508 76 96 0.0 0.0 0.00 0.00 0.00 92 1017.3
20260903045007 76 96 0.0 0.0 0.00 0.00 0.00 92 1017.3
20260903044508 76 95 0.0 0.0 0.00 0.00 0.00 92 1017.3
20260903044006 76 96 0.0 1.0 0.00 0.00 0.00 92 1017.4
20260903043505 76 95 0.0 1.0 0.00 0.00 0.00 92 1017.4
20260903042505 76 95 0.0 1.0 0.00 0.00 0.00 91 1017.3
20260903042005 76 96 0.0 1.0 0.00 0.00 0.00 91 1017.4
20260903041509 76 95 0.0 1.0 0.00 0.00 0.00 91 1017.4
20260903041008 77 96 0.0 1.0 0.00 0.00 0.00 91 1017.5
20260903040505 77 96 0.0 1.0 0.00 0.00 0.00 91 1017.5
20260903040011 77 96 0.0 1.0 0.00 0.00 0.00 91 1017.5
20260903035505 77 96 0.0 1.0 0.00 0.00 0.00 91 1017.4
20260903035005 77 96 0.0 1.0 0.00 0.00 0.00 91 1017.6
20260903034505 77 96 0.0 1.0 0.00 0.00 0.00 91 1017.6
20260903034005 77 96 0.0 0.0 0.00 0.00 0.00 90 1017.6
20260903033503 77 96 0.0 0.0 0.00 0.00 0.00 90 1017.5
20260903032506 78 96 0.0 0.0 0.00 0.00 0.00 90 1017.7
20260903032004 78 96 0.0 0.0 0.00 0.00 0.00 90 1017.6
20260903031504 78 96 0.0 0.0 0.00 0.00 0.00 90 1017.7
20260903031004 78 95 0.0 0.0 0.00 0.00 0.00 89 1017.7
20260903030505 78 96 0.0 1.0 0.00 0.00 0.00 89 1017.7
20260903030004 78 96 0.0 1.0 0.00 0.00 0.00 89 1017.6
20260903025504 78 96 0.0 1.0 0.00 0.00 0.00 89 1017.6
20260903025002 79 96 0.0 1.0 0.00 0.00 0.00 89 1017.8
20260903024503 79 96 0.0 1.0 0.00 0.00 0.00 88 1017.7
20260903024003 80 95 0.0 1.0 0.00 0.00 0.00 86 1017.7
20260903023504 80 96 0.0 0.0 0.00 0.00 0.00 85 1017.7
20260903022504 80 95 0.0 1.0 0.00 0.00 0.00 85 1017.7
20260903022003 80 96 0.0 1.0 0.00 0.00 0.00 85 1017.7
20260903021502 80 96 0.0 1.0 0.00 0.00 0.00 85 1017.7
20260903021002 80 95 0.0 1.0 0.00 0.00 0.00 86 1017.7
20260903020502 80 95 0.0 1.0 0.00 0.00 0.00 87 1017.5
20260903020008 80 96 0.0 1.0 0.00 0.00 0.00 87 1017.6
20260903015502 80 96 0.0 1.0 0.00 0.00 0.00 87 1017.5
20260903015001 80 96 0.0 1.0 0.00 0.00 0.00 87 1017.4
20260903014500 80 96 0.0 1.0 0.00 0.00 0.00 87 1017.5
20260903014002 80 95 0.0 2.0 0.00 0.00 0.00 87 1017.4
20260903013604 80 96 0.0 2.0 0.00 0.00 0.00 87 1017.3
20260903013502 80 96 0.0 2.0 0.00 0.00 0.00 87 1017.2
20260903012505 81 96 0.0 1.0 0.00 0.00 0.00 86 1017.2
20260903012005 81 95 0.0 1.0 0.00 0.00 0.00 86 1017.0
20260903011503 82 95 0.0 1.0 0.00 0.00 0.00 86 1017.1
20260903011003 82 95 0.0 1.0 0.00 0.00 0.00 85 1017.0
20260903010504 82 96 0.0 0.0 0.00 0.00 0.00 84 1016.8
20260903010104 83 95 0.0 1.0 0.00 0.00 0.00 84 1016.8
20260903005503 84 96 0.0 1.0 0.00 0.00 0.00 82 1016.8
20260903005005 83 96 0.0 1.0 0.00 0.00 0.00 83 1016.8
20260903004504 84 96 0.0 1.0 0.00 0.00 0.00 82 1016.7
20260903004002 84 95 0.0 1.0 0.00 0.00 0.00 81 1016.7
20260903003502 84 96 0.0 1.0 0.00 0.00 0.00 81 1016.7
20260903002503 84 96 0.0 1.0 0.00 0.00 0.00 80 1016.5
20260903002004 85 96 0.0 1.0 0.00 0.00 0.00 79 1016.5
20260903001501 85 96 0.0 2.0 0.00 0.00 0.00 79 1016.5
20260903001000 85 96 0.0 2.0 0.00 0.00 0.00 79 1016.4
20260903000601 86 95 0.0 1.0 0.00 0.00 0.00 76 1016.4
20260903000104 87 95 0.0 1.0 0.00 0.00 0.00 74 1016.4
20260902235602 87 96 0.0 2.0 0.00 0.00 0.00 73 1016.2
20260902235101 87 96 0.0 2.0 0.00 0.00 0.00 73 1016.2
20260902234603 87 96 0.0 1.0 0.00 0.00 0.00 73 1016.2
20260902234103 87 96 0.0 1.0 0.00 0.00 0.00 72 1016.2
20260902233559 88 96 0.0 3.0 0.00 0.00 0.00 71 1016.2
20260902232556 89 95 1.0 3.0 0.00 0.00 0.00 68 1016.2
20260902232055 89 96 0.0 4.0 0.00 0.00 0.00 67 1016.2
20260902231556 90 96 1.0 4.0 0.00 0.00 0.00 66 1016.2
20260902231056 90 95 3.0 4.0 0.00 0.00 0.00 64 1016.2
20260902230554 91 96 0.0 3.0 0.00 0.00 0.00 64 1016.1
20260902230105 91 96 0.0 4.0 0.00 0.00 0.00 65 1016.2
20260902225555 91 96 2.0 4.0 0.00 0.00 0.00 63 1016.3
20260902225055 92 96 1.0 4.0 0.00 0.00 0.00 62 1016.2
20260902224605 92 95 0.0 7.0 0.00 0.00 0.00 61 1016.3
20260902224053 91 95 0.0 7.0 0.00 0.00 0.00 62 1016.4
20260902223553 91 95 3.0 7.0 0.00 0.00 0.00 61 1016.4
20260902222555 92 95 3.0 7.0 0.00 0.00 0.00 59 1016.3
20260902222053 92 96 2.0 7.0 0.00 0.00 0.00 59 1016.4
20260902221553 93 96 3.0 7.0 0.00 0.00 0.00 59 1016.4
20260902221053 93 96 1.0 6.0 0.00 0.00 0.00 58 1016.4
20260902220555 92 96 1.0 8.0 0.00 0.00 0.00 58 1016.4
20260902220057 92 96 4.0 8.0 0.00 0.00 0.00 58 1016.4
20260902215552 93 95 3.0 8.0 0.00 0.00 0.00 56 1016.4
20260902215052 93 95 1.0 7.0 0.00 0.00 0.00 57 1016.4
20260902214605 93 96 2.0 7.0 0.00 0.00 0.00 56 1016.4
20260902214052 93 96 2.0 7.0 0.00 0.00 0.00 56 1016.4
20260902213556 93 96 1.0 8.0 0.00 0.00 0.00 57 1016.4
20260902212552 93 96 4.0 8.0 0.00 0.00 0.00 57 1016.5
20260902212052 93 96 4.0 8.0 0.00 0.00 0.00 57 1016.5
20260902211551 93 96 2.0 10.0 0.00 0.00 0.00 57 1016.5
20260902211052 93 96 3.0 10.0 0.00 0.00 0.00 57 1016.5
20260902210551 94 96 2.0 8.0 0.00 0.00 0.00 57 1016.5
20260902210052 94 96 1.0 8.0 0.00 0.00 0.00 57 1016.4
20260902205549 94 96 3.0 8.0 0.00 0.00 0.00 56 1016.6
20260902205049 94 96 3.0 8.0 0.00 0.00 0.00 56 1016.5
20260902204548 94 95 0.0 6.0 0.00 0.00 0.00 56 1016.6
20260902204046 93 96 0.0 7.0 0.00 0.00 0.00 57 1016.6
20260902203548 93 96 3.0 7.0 0.00 0.00 0.00 56 1016.6
20260902202548 92 96 3.0 9.0 0.00 0.00 0.00 58 1016.5
20260902202047 93 96 2.0 9.0 0.00 0.00 0.00 57 1016.6
20260902201549 94 96 4.0 9.0 0.00 0.00 0.00 56 1016.7
20260902201050 93 95 4.0 9.0 0.00 0.00 0.00 57 1016.7
20260902200545 94 95 2.0 7.0 0.00 0.00 0.00 55 1016.7
20260902200044 94 96 1.0 4.0 0.00 0.00 0.00 53 1016.7
20260902195543 94 96 1.0 3.0 0.00 0.00 0.00 54 1016.7
20260902195041 93 96 1.0 7.0 0.00 0.00 0.00 55 1016.9
20260902194540 93 95 2.0 7.0 0.00 0.00 0.00 55 1016.8
20260902194044 93 96 0.0 6.0 0.00 0.00 0.00 55 1016.9
20260902193539 93 96 1.0 6.0 0.00 0.00 0.00 56 1017.0
20260902192539 92 96 5.0 7.0 0.00 0.00 0.00 57 1017.1
20260902192036 92 96 3.0 7.0 0.00 0.00 0.00 57 1017.2
20260902191541 92 96 0.0 7.0 0.00 0.00 0.00 58 1017.3
20260902191036 92 96 3.0 9.0 0.00 0.00 0.00 57 1017.3
20260902190538 93 96 4.0 9.0 0.00 0.00 0.00 57 1017.4
20260902190035 93 96 2.0 7.0 0.00 0.00 0.00 57 1017.5
20260902185535 92 96 3.0 7.0 0.00 0.00 0.00 57 1017.5
20260902185034 92 96 1.0 8.0 0.00 0.00 0.00 57 1017.5
20260902184541 93 96 4.0 6.0 0.00 0.00 0.00 57 1017.5
20260902184037 93 96 3.0 6.0 0.00 0.00 0.00 58 1017.5
20260902183533 92 96 0.0 8.0 0.00 0.00 0.00 59 1017.7
20260902182533 92 96 0.0 7.0 0.00 0.00 0.00 58 1017.8
20260902182033 92 96 3.0 7.0 0.00 0.00 0.00 58 1017.8
20260902181533 92 96 2.0 4.0 0.00 0.00 0.00 58 1017.8
20260902181035 92 95 0.0 4.0 0.00 0.00 0.00 58 1017.9
20260902180532 91 96 0.0 7.0 0.00 0.00 0.00 59 1017.8
20260902180035 91 96 2.0 7.0 0.00 0.00 0.00 59 1017.7
20260902175532 91 96 1.0 6.0 0.00 0.00 0.00 60 1017.8
20260902175031 91 96 2.0 8.0 0.00 0.00 0.00 60 1017.8
20260902174543 91 96 4.0 8.0 0.00 0.00 0.00 60 1018.0
20260902174030 91 96 1.0 8.0 0.00 0.00 0.00 60 1018.0
20260902173530 92 95 4.0 7.0 0.00 0.00 0.00 59 1018.1
20260902172530 91 96 0.0 9.0 0.00 0.00 0.00 59 1018.2
20260902172030 91 96 3.0 9.0 0.00 0.00 0.00 59 1018.2
20260902171536 93 96 1.0 3.0 0.00 0.00 0.00 59 1018.3
20260902171032 92 95 0.0 4.0 0.00 0.00 0.00 58 1018.3
20260902170525 91 96 0.0 6.0 0.00 0.00 0.00 59 1018.4
20260902170025 91 96 0.0 7.0 0.00 0.00 0.00 62 1018.4